Brownsville, TX

10:35 PM CDT on June 22, 2017 (GMT -0500)
Brownsville-South Padre I International

Weather History for KBRO - February, 2013

Change the Weather History Date:

Friday, February 8, 2013

  Actual Average Record
Temperature  
Mean Temperature 69 °F 63 °F  
Max Temperature 75 °F 73 °F 86 °F (1963)
Min Temperature 62 °F 54 °F 22 °F (1895)
Degree Days  
Heating Degree Days 0 4  
Month to date heating degree days 1 39  
Since 1 July heating degree days 257 438  
Cooling Degree Days 4 3  
Month to date cooling degree days 54 19  
Year to date cooling degree days 128 78  
Growing Degree Days 18 (Base 50)    
Moisture  
Dew Point 64 °F    
Average Humidity 81    
Maximum Humidity 100    
Minimum Humidity 61    
Precipitation  
Precipitation T in 0.04 in 1.16 in (2012)
Month to date precipitation T 0.38  
Year to date precipitation 1.47 1.65  
Sea Level Pressure  
Sea Level Pressure 30.08 in    
Wind  
Wind Speed 8 mph (NNE)    
Max Wind Speed 18 mph    
Max Gust Speed 24 mph    
Visibility 7 miles    
Events Fog , Rain    
T = Trace of Precipitation, MM = Missing Value Source: NWS Daily Summary

Daily Weather History Graph

Daily Weather History Graph

Search for Another Location

Airport or City:

Trip Planner

Search our weather history database for the weather conditions in past years. The results will help you decide how hot, cold, wet, or windy it might be!

Date:

Astronomy

Feb. 08, 2013 Rise Set
Actual Time 7:09 AM CST 6:18 PM CST
Civil Twilight 6:45 AM CST 6:42 PM CST
Nautical Twilight 6:18 AM CST 7:09 PM CST
Astronomical Twilight 5:51 AM CST 7:36 PM CST
Moon 5:34 AM CST (2/8) 4:55 PM CST (2/8)
Length of Visible Light 11h 56m
Length of Day
11h 08m
Waning Crescent, 3% of the Moon is Illuminated
Feb 8
Waning Crescent
Feb 10
New
Feb 17
First Quarter
Feb 25
Full
Mar 4
Last Quarter

Hourly Weather History & Observations

Time (CST) Temp. Dew Point Humidity Pressure Visibility Wind Dir Wind Speed Gust Speed Precip Events Conditions
12:53 AM 68.0 °F 68.0 °F 100% 29.98 in 0.2 mi NE 3.5 mph - N/A Fog Fog
1:31 AM 68.0 °F 68.0 °F 100% 29.99 in 0.5 mi Calm Calm - N/A Fog Fog
1:53 AM 68.0 °F 68.0 °F 100% 29.99 in 0.2 mi Calm Calm - N/A Fog Fog
2:53 AM 68.0 °F 66.9 °F 96% 30.00 in 0.2 mi NNW 4.6 mph - N/A Fog Fog
3:01 AM 68.0 °F 66.2 °F 94% 30.01 in 0.5 mi NNW 4.6 mph - N/A Fog Fog
3:34 AM 68.0 °F 68.0 °F 100% 30.02 in 0.8 mi NNW 4.6 mph - N/A   Mist
3:50 AM 66.2 °F 66.2 °F 100% 30.03 in 1.2 mi North 3.5 mph - N/A   Overcast
3:53 AM 66.9 °F 66.9 °F 100% 30.03 in 1.0 mi North 3.5 mph - N/A   Mist
4:03 AM 68.0 °F 68.0 °F 100% 30.03 in 0.8 mi North 3.5 mph - N/A   Mist
4:22 AM 68.0 °F 68.0 °F 100% 30.03 in 1.5 mi North 6.9 mph - N/A   Overcast
4:26 AM 68.0 °F 68.0 °F 100% 30.03 in 3.0 mi North 4.6 mph - N/A   Overcast
4:53 AM 68.0 °F 68.0 °F 100% 30.03 in 6.0 mi North 5.8 mph - N/A   Overcast
5:22 AM 68.0 °F 68.0 °F 100% 30.04 in 7.0 mi North 5.8 mph - N/A   Overcast
5:43 AM 68.0 °F 66.2 °F 94% 30.05 in 7.0 mi North 4.6 mph - N/A   Scattered Clouds
5:53 AM 68.0 °F 66.9 °F 96% 30.05 in 7.0 mi North 5.8 mph - N/A   Scattered Clouds
6:31 AM 66.2 °F 66.2 °F 100% 30.07 in 7.0 mi Calm Calm - N/A   Scattered Clouds
6:35 AM 66.2 °F 66.2 °F 100% 30.07 in 7.0 mi Calm Calm - N/A   Mostly Cloudy
6:53 AM 68.0 °F 66.0 °F 93% 30.08 in 7.0 mi North 4.6 mph - N/A   Overcast
7:26 AM 68.0 °F 66.2 °F 94% 30.09 in 6.0 mi NNW 3.5 mph - N/A   Mostly Cloudy
7:47 AM 68.0 °F 66.2 °F 94% 30.10 in 6.0 mi NNW 3.5 mph - N/A   Overcast
7:53 AM 68.0 °F 66.9 °F 96% 30.10 in 6.0 mi NNW 3.5 mph - N/A   Overcast
8:04 AM 68.0 °F 66.2 °F 94% 30.10 in 6.0 mi NNW 6.9 mph - N/A   Overcast
8:11 AM 68.0 °F 66.2 °F 94% 30.11 in 6.0 mi NNW 6.9 mph - N/A   Overcast
8:19 AM 68.0 °F 66.2 °F 94% 30.11 in 6.0 mi North 10.4 mph - N/A   Overcast
8:28 AM 68.0 °F 66.2 °F 94% 30.11 in 9.0 mi North 6.9 mph - 0.00 in Rain Light Rain
8:40 AM 68.0 °F 66.2 °F 94% 30.12 in 9.0 mi North 8.1 mph - 0.00 in   Overcast
8:53 AM 68.0 °F 66.0 °F 93% 30.13 in 9.0 mi North 10.4 mph - 0.00 in   Overcast
9:21 AM 68.0 °F 64.4 °F 88% 30.14 in 9.0 mi NNE 11.5 mph 21.9 mph N/A   Overcast
9:45 AM 69.8 °F 64.4 °F 83% 30.14 in 10.0 mi NNE 10.4 mph - N/A   Overcast
9:53 AM 69.1 °F 64.0 °F 84% 30.14 in 10.0 mi NNE 16.1 mph 19.6 mph N/A   Overcast
10:20 AM 69.8 °F 60.8 °F 73% 30.16 in 10.0 mi NNE 13.8 mph 18.4 mph N/A   Overcast
10:53 AM 70.0 °F 61.0 °F 73% 30.16 in 10.0 mi NNE 16.1 mph 23.0 mph N/A   Overcast
11:00 AM 69.8 °F 60.8 °F 73% 30.16 in 10.0 mi NNE 16.1 mph 24.2 mph N/A   Overcast
11:11 AM 69.8 °F 60.8 °F 73% 30.16 in 10.0 mi NNE 13.8 mph 21.9 mph N/A   Overcast
11:28 AM 71.6 °F 60.8 °F 69% 30.16 in 10.0 mi NNE 15.0 mph 21.9 mph N/A   Overcast
11:53 AM 70.0 °F 60.1 °F 71% 30.16 in 10.0 mi NNE 12.7 mph 20.7 mph N/A   Overcast
12:25 PM 71.6 °F 60.8 °F 69% 30.15 in 10.0 mi NE 11.5 mph - N/A   Overcast
12:53 PM 72.0 °F 60.1 °F 66% 30.14 in 10.0 mi NNE 11.5 mph - N/A   Overcast
1:31 PM 71.6 °F 59.0 °F 64% 30.13 in 10.0 mi NE 12.7 mph - N/A   Scattered Clouds
1:53 PM 73.0 °F 59.0 °F 61% 30.11 in 10.0 mi NE 16.1 mph 21.9 mph N/A   Clear
2:53 PM 73.0 °F 59.0 °F 61% 30.09 in 10.0 mi NE 12.7 mph - N/A   Clear
3:53 PM 70.0 °F 59.0 °F 68% 30.08 in 10.0 mi NE 12.7 mph - N/A   Clear
4:53 PM 69.1 °F 59.0 °F 70% 30.07 in 10.0 mi NE 11.5 mph - N/A   Clear
5:53 PM 66.0 °F 60.1 °F 81% 30.07 in 10.0 mi NE 11.5 mph - N/A   Clear
6:42 PM 64.4 °F 60.8 °F 88% 30.08 in 10.0 mi NE 9.2 mph - N/A   Mostly Cloudy
6:53 PM 64.0 °F 60.1 °F 87% 30.08 in 10.0 mi ENE 9.2 mph - N/A   Mostly Cloudy
7:01 PM 64.4 °F 60.8 °F 88% 30.08 in 10.0 mi ENE 11.5 mph - N/A   Scattered Clouds
7:09 PM 64.4 °F 60.8 °F 88% 30.08 in 10.0 mi ENE 9.2 mph - N/A   Mostly Cloudy
7:53 PM 64.9 °F 61.0 °F 87% 30.08 in 10.0 mi ENE 9.2 mph - N/A   Overcast
8:21 PM 64.4 °F 60.8 °F 88% 30.08 in 10.0 mi ENE 9.2 mph - N/A   Scattered Clouds
8:53 PM 64.0 °F 61.0 °F 90% 30.08 in 10.0 mi ENE 6.9 mph - N/A   Clear
9:53 PM 63.0 °F 61.0 °F 93% 30.07 in 7.0 mi ENE 5.8 mph - N/A   Clear
10:53 PM 63.0 °F 61.0 °F 93% 30.06 in 10.0 mi ENE 4.6 mph - N/A   Clear
11:53 PM 62.1 °F 61.0 °F 96% 30.05 in 9.0 mi Calm Calm - N/A   Clear